Location: Unspecified
(47.4992°N, 121.7766°W)
Time: 02:56:29
(UTC-08:00)

Cosmos 2058 - Pass Details

Date: 03 February 2021
Orbit: 561 x 584 km, 82.5° (Epoch: 24 February)

Event Time Altitude Azimuth Distance (km) Brightness Sun altitude
Rises 05:52:51 0° 351° (N) 2,769 6.2 -16.7°
Reaches altitude 10° 05:55:03 10° 352° (N) 1,865 5.4 -16.3°
Maximum altitude 05:59:10 84° 79° (E) 571 2.9 -15.6°
Drops below altitude 10° 06:03:14 10° 170° (S) 1,846 5.7 -14.9°
Sets 06:05:24 0° 171° (S) 2,737 6.6 -14.6°
